Retour au catalogue

CRRES DEB

CANISTER

ActifHEO
NORAD 21948·DEBRIS·🇺🇸 United States

Lancé Jul 25, 1990 depuis Cape Canaveral Space Force Station

Loading…

Prochains Passages (prochaines 24 heures)

TLE

FraisSource: Space-Track

Époque: Sep 14, 2026, 10:02 UTC

1 21948U 90065S   26257.41869903  .00001962  00000-0  70218-3 0  9995
2 21948  17.9485   0.7803 6200764 257.1905  31.0672  3.72208493366936

Suivez CRRES DEB en temps réel avec AllMySat

Download on the App Store